Home > Weather > Lucknow > Past weeks

Flag for India Past Weather in Lucknow, Uttar Pradesh, India — Yesterday and Last 2 Weeks

Now
86 °F

Mostly cloudy.


Feels Like: 102 °F
Forecast: 80 / 88 °F
Wind: No wind

Location: Lucknow / Amausi

Current Time: Jul 1, 2016 at 10:33:52 PM

Latest Report: Jul 1, 2016 at 10:00 PM


Visibility: 2 mi

Pressure: 29.45 "Hg

Humidity: 84%

Dew Point: 81 °F

Location of LucknowLocation

Past Weather in Lucknow — Graph

°F

Lucknow Temperature Yesterday

Maximum temperature yesterday: 104 °F (at 3:00 PM)
Minimum temperature yesterday: 88 °F (at 4:00 AM)
Average temperature yesterday: 96 °F

High & Low Weather Summary for the Past Weeks

 TemperatureHumidityPressure
High104 °F (Jun 30, 3:00 PM)100% (Jun 21, 7:30 AM)29.68 "Hg (Jun 21, 7:30 AM)
Low75 °F (Jun 21, 7:30 AM)45% (Jun 19, 5:00 PM)29.12 "Hg (Jun 30, 5:30 PM)
Average91 °F73%29.53 "Hg
* Reported Jun 16 8:30 PM — Jul 1 9:00 PM, Lucknow, Weather by CustomWeather, © 2016

Note: Actual official high and low records may vary slightly from our data, if they occured in-between our weather recording intervals... More about our weather records

Advertising

Lucknow Weather History for the Previous 24 Hours

Scroll right to see more
 ConditionsComfort  
Time TempWeatherWind HumidityBarometerVisibility
9:00 PM
Fri, Jul 1
88 °FMostly cloudy.3 mph84%29.45 "Hg2 mi
8:30 PM88 °FMostly cloudy.5 mph84%29.45 "Hg2 mi
8:00 PM90 °FMostly cloudy.6 mph79%29.45 "Hg2 mi
7:30 PM90 °FMore clouds than sun.5 mph79%29.45 "Hg2 mi
7:00 PM88 °FMore clouds than sun.7 mph84%29.39 "Hg2 mi
6:00 PM90 °FBroken clouds.14 mph79%29.36 "Hg2 mi
5:30 PM91 °FBroken clouds.14 mph75%29.36 "Hg2 mi
5:00 PM91 °FBroken clouds.12 mph80%29.36 "Hg2 mi
4:30 PM93 °FBroken clouds.12 mph75%29.36 "Hg2 mi
4:00 PM93 °FBroken clouds.12 mph75%29.36 "Hg2 mi
3:30 PM93 °FBroken clouds.12 mph75%29.36 "Hg3 mi
3:00 PM93 °FBroken clouds.9 mph80%29.36 "Hg3 mi
2:30 PM93 °FBroken clouds.12 mph80%29.36 "Hg3 mi
2:00 PM93 °FBroken clouds.9 mph80%29.39 "Hg3 mi
1:30 PM91 °FBroken clouds.9 mph84%29.39 "Hg3 mi
1:00 PM88 °FBroken clouds.2 mph100%29.42 "Hg2 mi
12:00 PM95 °FBroken clouds.6 mph71%29.45 "Hg3 mi
11:30 AM95 °FBroken clouds.3 mph67%29.45 "Hg3 mi
11:00 AM95 °FBroken clouds.3 mph67%29.45 "Hg3 mi
10:30 AM95 °FBroken clouds.5 mph67%29.45 "Hg3 mi
10:00 AM95 °FBroken clouds.3 mph63%29.45 "Hg3 mi
9:30 AM95 °FBroken clouds.5 mph63%29.45 "Hg3 mi
9:00 AM93 °FBroken clouds.7 mph71%29.45 "Hg3 mi
8:30 AM91 °FBroken clouds.8 mph75%29.45 "Hg3 mi
8:00 AM90 °FBroken clouds.7 mph75%29.42 "Hg3 mi
7:30 AM90 °FScattered clouds.7 mph75%29.42 "Hg2 mi
7:00 AM88 °FPartly sunny.5 mph79%29.42 "Hg2 mi
6:30 AM88 °FPartly sunny.5 mph79%29.42 "Hg2 mi
6:00 AM86 °FBroken clouds.5 mph84%29.42 "Hg2 mi
5:30 AM86 °FPassing clouds.5 mph84%29.42 "Hg2 mi
5:00 AM86 °FPassing clouds.5 mph84%29.42 "Hg2 mi
4:00 AM86 °FPassing clouds.5 mph84%29.39 "Hg2 mi
3:00 AM86 °FPassing clouds.5 mph84%29.42 "Hg2 mi
1:00 AM90 °FPassing clouds.5 mph75%29.47 "Hg2 mi
12:00 AM90 °FPassing clouds.6 mph75%29.47 "Hg2 mi
11:00 PM
Thu, Jun 30
91 °FPartly cloudy.6 mph71%29.47 "Hg2 mi
10:00 PM91 °FPartly cloudy.9 mph71%29.50 "Hg2 mi
Weather by CustomWeather, © 2016

See weather overviewHow to use our weather pages